Regional Weather Roundup
Issued by NWS

Home | Current Version | Previous Version | Text Only | Print | Product List | Glossary Off
Versions: 1 2 3 4 5 6 7 8 9 10 11 12 13 14 15 16 17 18 19 20 21 22 23 24 25 26 27 28 29 30 31 32 33 34 35 36 37 38 39 40 41 42 43 44 45 46 47 48 49 50

014
ASUS43 KFSD 011410
RWRSD

WEATHER ROUNDUP FOR SOUTH DAKOTA
NATIONAL WEATHER SERVICE SIOUX FALLS SD
800 AM CST WED MAR 01 2017

NOTE: "FAIR" INDICATES FEW OR NO CLOUDS BELOW 12,000 FEET WITH NO
SIGNIFICANT WEATHER AND/OR OBSTRUCTIONS TO VISIBILITY.


SDZ001>005-009-010-012>017-011500-
NORTHWEST AND NORTH CENTRAL SOUTH DAKOTA

CITY           SKY/WX    TMP DP  RH WIND       PRES   REMARKS
BUFFALO          N/A     17  13  84 NW13      29.96R WCI   4
FAITH            N/A     24  20  84 NW21      30.02R WCI   9
MOBRIDGE       CLOUDY    26  21  81 N12       29.96R WCI  16
$$

SDZ012>016-024>037-041>051-057-063-072>074-011500-
SOUTHWEST AND SOUTH CENTRAL SOUTH DAKOTA

CITY           SKY/WX    TMP DP  RH WIND       PRES   REMARKS
RAPID CTY ARPT CLEAR     19  13  77 NW7       30.04R WCI  10
PIERRE         MOCLDY    21  19  92 W12       30.01R WCI   9
CUSTER         CLEAR     17   5  59 VRB7      29.94R WCI   8
ELLSWORTH AFB  CLEAR     21  17  83 NW9       30.04R WCI  11
PHILIP         CLEAR     26  21  81 NW18      30.06R WCI  13
PINE RIDGE     PTCLDY    22  16  78 W6        30.07R WCI  14
SPEARFISH      FAIR      23  16  74 W15G24    30.02R WCI  10
WINNER         CLOUDY    28  23  81 NW15      30.02R WCI  16
$$

SDZ004>011-016>023-039-040-011500-
NORTHEAST SOUTH DAKOTA

CITY           SKY/WX    TMP DP  RH WIND       PRES   REMARKS
ABERDEEN       LGT SNOW  21  16  81 N7        30.00R WCI  12
WATERTOWN      PTCLDY    19  16  88 NW12      29.92R WCI   7
BROOKINGS      CLOUDY    21  18  88 NW12      29.92R WCI   9
SISSETON         N/A     20  15  81 N17       29.95R WCI   5
$$

SDZ017-020-022-023-036>040-048>070-011500-
SOUTHEAST SOUTH DAKOTA

CITY           SKY/WX    TMP DP  RH WIND       PRES   REMARKS
SIOUX FALLS    MOCLDY    24  21  88 NW14      29.95R WCI  12
HURON          CLEAR     14  12  92 NW7       30.00R WCI   4
CHAMBERLAIN    CLOUDY    26  25  97 W10       30.01R WCI  16
MITCHELL       CLEAR     22  20  92 W10       30.01R WCI  11
YANKTON        PTCLDY    27  21  80 NW13      30.00R WCI  16
$$

ABBREVIATIONS USED IN REMARKS
   TC - TEMPERATURE IN CELSIUS
  WCI - WIND CHILL INDEX
   HX - HEAT INDEX
  VSB - VISIBILITY





USA.gov is the U.S. government's official web portal to all federal, state and local government web resources and services.